This is the latest recevied weather packets stored in our database for station/object DB7GV-8. If no packets are shown the sender has not sent any weather packets the latest 10 day(s).
| Time | Temp. | Humidity | Pressure | Rain* | Wind** | Luminosity | Snow |
|---|---|---|---|---|---|---|---|
| 1777651549 | 25° C | 22% | 1022.7 hPa | - | - | - | - |
| 1777649739 | 25° C | 22% | 1022.8 hPa | - | - | - | - |
| 1777648833 | 25.56° C | 23% | 1022.9 hPa | - | - | - | - |
| 1777647927 | 25° C | 23% | 1023 hPa | - | - | - | - |
| 1777647022 | 25° C | 23% | 1023.1 hPa | - | - | - | - |
| 1777646117 | 25° C | 22% | 1023.1 hPa | - | - | - | - |
| 1777645211 | 25° C | 23% | 1023.1 hPa | - | - | - | - |
| 1777644306 | 24.44° C | 22% | 1023.4 hPa | - | - | - | - |
| 1777643400 | 25.56° C | 23% | 1023.5 hPa | - | - | - | - |
| 1777642495 | 25.56° C | 22% | 1023.6 hPa | - | - | - | - |
| 1777641590 | 26.11° C | 23% | 1023.7 hPa | - | - | - | - |
| 1777640684 | 25.56° C | 23% | 1023.9 hPa | - | - | - | - |
| 1777639778 | 25° C | 24% | 1024.1 hPa | - | - | - | - |
| 1777638873 | 25.56° C | 24% | 1024.3 hPa | - | - | - | - |
| 1777637968 | 25.56° C | 24% | 1024.3 hPa | - | - | - | - |
| 1777637062 | 25° C | 24% | 1024.4 hPa | - | - | - | - |
| 1777636157 | 25° C | 24% | 1024.5 hPa | - | - | - | - |
| 1777635252 | 25.56° C | 25% | 1024.6 hPa | - | - | - | - |
| 1777634346 | 25° C | 24% | 1024.7 hPa | - | - | - | - |
| 1777633441 | 24.44° C | 24% | 1024.9 hPa | - | - | - | - |
| 1777631630 | 24.44° C | 24% | 1025.1 hPa | - | - | - | - |
| 1777628914 | 23.33° C | 23% | 1025.4 hPa | - | - | - | - |
| 1777628009 | 23.33° C | 23% | 1025.5 hPa | - | - | - | - |
| 1777627103 | 22.78° C | 22% | 1025.5 hPa | - | - | - | - |
| 1777626198 | 21.67° C | 23% | 1025.4 hPa | - | - | - | - |
* Rain since midnight (hover to see other rain measurements)
** Current wind speed in m/s (hover to see current wind gust speed)